Location: Asheville, NC
(35.6000°N, 82.5500°W)
Time: 19:14:38
(UTC-04:00)

HO-68 - Pass Details

Date: 10 January 2018
Orbit: 1193 x 1204 km, 100.1° (Epoch: 21 April)

Event Time Altitude Azimuth Distance (km) Brightness Sun altitude
Rises 20:31:49 0° 217° (SW) 4,088 ? -35.2°
Reaches altitude 10° 20:36:19 10° 244° (WSW) 3,128 ? -36.1°
Maximum altitude 20:39:22 13° 269° (W) 2,902 ? -36.7°
Drops below altitude 10° 20:42:25 10° 295° (WNW) 3,132 ? -37.3°
Sets 20:46:58 0° 322° (NW) 4,099 ? -38.3°
